Visibility
5.3 9.6 8.8 8.4 13.1 11.5 15.0 15.0 15.0 15.0 15.0 13.6 15.0 15.0 15.0 15.0 15.0 15.0 15.0 15.0 15.0 15.0 15.0 15.0 15.0 15.0 15.0 15.0 15.0 15.0 15.0 15.0 15.0 15.0 15.0 15.0 15.0 15.0 15.0 15.0 15.0 15.0 15.0 15.0
9.2 10.2 6.7 5.9 8.7 12.0 8.7 15.0 15.0 15.0 15.0 15.0 15.0 15.0 15.0 15.0 15.0 15.0 15.0 15.0 15.0 15.0 15.0 15.0 15.0 15.0 15.0 15.0 15.0 15.0 15.0 15.0 15.0 15.0 15.0 15.0 15.0 15.0 15.0 15.0 15.0 15.0 15.0 15.0
6.2 7.9 4.5 4.8 15.0 15.0 14.6 15.0 15.0 11.9 15.0 15.0 15.0 15.0 15.0 15.0 15.0 15.0 15.0 15.0 15.0 15.0 15.0 15.0 15.0 15.0 15.0 15.0 15.0 15.0 15.0 15.0 15.0 15.0 15.0 15.0 15.0 15.0 15.0 15.0 15.0 15.0 15.0 15.0
7.4 3.4 4.5 8.8 15.0 15.0 15.0 15.0 15.0 12.9 0.6 1.4 15.0 15.0 15.0 15.0 15.0 15.0 15.0 15.0 15.0 15.0 5.1 15.0 15.0 15.0 15.0 15.0 15.0 15.0 15.0 15.0 15.0 15.0 15.0 15.0 15.0 15.0 15.0 15.0 15.0 15.0 15.0 15.0
4.0 4.2 7.7 15.0 15.0 15.0 15.0 15.0 15.0 15.0 15.0 15.0 15.0 15.0 15.0 15.0 15.0 15.0 15.0 14.9 15.0 15.0 15.0 0.1 0.0 0.8 0.0 0.0 11.3 15.0 15.0 13.4 0.4 15.0 15.0 15.0 15.0 15.0 15.0 15.0 15.0 15.0 15.0 15.0
6.3 15.0 15.0 15.0 15.0 15.0 15.0 15.0 15.0 15.0 15.0 15.0 14.7 5.6 15.0 15.0 15.0 14.3 15.0 15.0 15.0 15.0 15.0 0.5 5.6 15.0 15.0 15.0 0.2 15.0 15.0 15.0 3.1 11.1 15.0 15.0 14.7 15.0 15.0 15.0 15.0 15.0 15.0 15.0
15.0 15.0 15.0 15.0 15.0 15.0 15.0 15.0 15.0 15.0 15.0 15.0 15.0 15.0 15.0 15.0 15.0 15.0 15.0 15.0 15.0 15.0 15.0 15.0 15.0 15.0 15.0 15.0 15.0 15.0 15.0 11.0 1.9 3.1 13.6 0.1 15.0 15.0 15.0 15.0 15.0 15.0 15.0 15.0
15.0 15.0 15.0 15.0 15.0 15.0 15.0 15.0 15.0 15.0 15.0 15.0 15.0 15.0 15.0 15.0 15.0 15.0 15.0 15.0 15.0 15.0 15.0 15.0 15.0 15.0 15.0 15.0 15.0 15.0 15.0 8.1 0.1 0.3 0.5 15.0 15.0 15.0 15.0 15.0 15.0 15.0 15.0 15.0
15.0 15.0 15.0 15.0 15.0 15.0 15.0 15.0 15.0 15.0 15.0 15.0 15.0 15.0 15.0 15.0 15.0 15.0 15.0 15.0 15.0 15.0 15.0 15.0 8.4 14.9 15.0 15.0 15.0 15.0 15.0 14.5 0.1 0.2 0.2 1.8 15.0 15.0 15.0 15.0 15.0 15.0 15.0 15.0
15.0 15.0 15.0 15.0 15.0 15.0 15.0 15.0 15.0 15.0 15.0 15.0 15.0 15.0 15.0 15.0 15.0 15.0 15.0 15.0 15.0 15.0 15.0 15.0 15.0 15.0 15.0 15.0 15.0 15.0 15.0 15.0 0.6 1.7 0.3 13.2 15.0 15.0 15.0 15.0 15.0 15.0 15.0 15.0
15.0 15.0 15.0 15.0 15.0 15.0 15.0 15.0 15.0 15.0 15.0 15.0 15.0 15.0 15.0 15.0 15.0 15.0 15.0 15.0 15.0 15.0 15.0 15.0 15.0 15.0 15.0 15.0 15.0 15.0 15.0 15.0 12.5 11.1 2.5 0.6 15.0 15.0 15.0 15.0 15.0 15.0 15.0 15.0
15.0 15.0 15.0 15.0 15.0 15.0 15.0 15.0 15.0 15.0 15.0 15.0 15.0 15.0 15.0 15.0 15.0 15.0 15.0 15.0 15.0 15.0 15.0 15.0 15.0 15.0 15.0 15.0 15.0 15.0 15.0 15.0 15.0 12.6 5.5 15.0 15.0 15.0 15.0 15.0 15.0 15.0 15.0 15.0
15.0 15.0 15.0 15.0 15.0 15.0 15.0 15.0 15.0 15.0 15.0 15.0 15.0 15.0 15.0 15.0 15.0 15.0 15.0 15.0 15.0 15.0 15.0 15.0 15.0 15.0 15.0 15.0 15.0 15.0 15.0 15.0 15.0 15.0 15.0 15.0 15.0 15.0 15.0 15.0 15.0 15.0 15.0 15.0
15.0 15.0 15.0 15.0 15.0 15.0 15.0 15.0 15.0 15.0 15.0 15.0 15.0 15.0 15.0 15.0 15.0 15.0 15.0 15.0 15.0 15.0 15.0 15.0 15.0 15.0 15.0 15.0 15.0 15.0 15.0 15.0 15.0 15.0 15.0 15.0 15.0 15.0 15.0 15.0 15.0 15.0 15.0 15.0
15.0 15.0 15.0 15.0 15.0 15.0 15.0 15.0 15.0 15.0 15.0 15.0 15.0 15.0 15.0 15.0 15.0 15.0 15.0 15.0 15.0 15.0 15.0 6.0 6.6 15.0 15.0 15.0 15.0 15.0 15.0 15.0 15.0 15.0 15.0 15.0 15.0 15.0 15.0 15.0 15.0 15.0 15.0 15.0
15.0 15.0 15.0 15.0 15.0 15.0 15.0 15.0 15.0 15.0 15.0 15.0 15.0 15.0 15.0 15.0 15.0 15.0 15.0 15.0 15.0 15.0 14.7 12.1 15.0 15.0 15.0 8.3 6.5 15.0 15.0 15.0 15.0 15.0 15.0 15.0 15.0 15.0 15.0 15.0 15.0 15.0 15.0 15.0
15.0 15.0 15.0 15.0 15.0 15.0 15.0 15.0 15.0 15.0 15.0 12.9 12.7 15.0 15.0 15.0 15.0 15.0 15.0 15.0 15.0 15.0 15.0 10.5 15.0 15.0 15.0 10.8 15.0 15.0 15.0 15.0 15.0 15.0 15.0 14.4 15.0 15.0 15.0 15.0 15.0 15.0 15.0 15.0
15.0 15.0 15.0 15.0 15.0 15.0 15.0 15.0 15.0 15.0 15.0 15.0 5.2 15.0 15.0 15.0 15.0 15.0 15.0 15.0 9.6 14.8 15.0 13.1 15.0 15.0 15.0 1.7 15.0 15.0 15.0 15.0 15.0 15.0 15.0 15.0 15.0 15.0 15.0 15.0 15.0 15.0 15.0 15.0
15.0 15.0 14.8 15.0 15.0 15.0 15.0 15.0 15.0 15.0 15.0 5.5 6.9 14.4 15.0 15.0 15.0 15.0 15.0 12.3 3.8 14.5 1.2 8.7 15.0 14.2 2.0 15.0 15.0 15.0 15.0 15.0 2.7 2.7 14.2 15.0 15.0 15.0 15.0 15.0 15.0 15.0 15.0 15.0
13.6 15.0 15.0 14.6 15.0 15.0 15.0 15.0 14.8 14.9 13.8 15.0 4.7 14.9 15.0 15.0 15.0 15.0 15.0 12.7 6.5 0.4 15.0 14.8 0.2 10.5 15.0 15.0 14.6 14.9 15.0 15.0 1.4 0.1 0.3 3.3 14.4 15.0 15.0 15.0 15.0 15.0 15.0 15.0
15.0 13.9 12.7 15.0 15.0 15.0 14.7 4.3 13.0 11.3 13.1 11.8 14.2 15.0 15.0 15.0 15.0 15.0 15.0 15.0 10.6 0.2 13.7 0.3 7.1 0.7 0.2 3.4 15.0 15.0 15.0 0.9 0.1 0.1 0.1 0.5 0.2 0.1 0.5 8.9 15.0 15.0 15.0 15.0
15.0 15.0 15.0 15.0 10.9 12.8 15.0 1.4 5.8 15.0 11.2 15.0 15.0 15.0 15.0 15.0 15.0 3.2 11.7 15.0 4.5 2.1 8.6 0.2 0.9 0.1 10.2 15.0 15.0 15.0 15.0 0.2 0.1 0.4 0.1 0.3 0.2 0.2 0.1 0.3 14.9 15.0 15.0 15.0
15.0 15.0 13.9 15.0 7.9 5.5 13.8 15.0 15.0 4.8 15.0 15.0 11.6 15.0 15.0 15.0 14.6 3.4 3.7 5.1 5.0 15.0 0.1 5.7 0.5 1.2 15.0 15.0 15.0 15.0 15.0 3.2 0.3 0.2 0.1 0.1 0.1 0.1 0.1 0.5 15.0 15.0 15.0 15.0
14.2 15.0 15.0 14.3 5.1 12.4 15.0 15.0 15.0 15.0 14.7 15.0 10.3 15.0 15.0 7.3 10.0 4.5 0.8 15.0 14.1 2.6 0.3 0.2 0.2 15.0 15.0 15.0 15.0 13.8 0.3 0.4 0.1 0.1 0.1 0.1 0.1 0.1 0.0 11.5 15.0 15.0 15.0 15.0
4.6 15.0 12.4 0.2 15.0 6.3 5.0 4.1 10.3 15.0 15.0 15.0 15.0 10.2 10.8 4.8 1.5 3.0 6.4 1.7 1.4 1.3 0.1 0.2 15.0 15.0 15.0 15.0 15.0 1.1 0.2 0.2 0.1 0.1 0.1 0.1 0.1 0.1 0.1 15.0 15.0 15.0 15.0 15.0
15.0 15.0 3.6 7.0 13.2 10.8 4.1 4.2 5.5 15.0 15.0 8.1 13.7 4.2 2.0 3.1 7.3 0.3 5.6 0.6 8.5 0.2 0.6 15.0 15.0 15.0 15.0 15.0 15.0 7.3 0.1 0.1 0.1 0.1 0.1 0.1 0.1 0.1 0.8 9.2 15.0 15.0 15.0 15.0
15.0 9.0 15.0 5.7 2.5 3.7 4.3 4.3 8.8 6.7 7.6 2.9 4.1 1.2 14.0 8.6 0.3 0.3 13.2 0.2 0.8 6.6 15.0 15.0 15.0 15.0 15.0 15.0 10.5 4.1 0.3 0.1 0.1 0.1 0.3 0.1 0.1 0.2 0.1 0.3 1.1 5.2 2.5 0.4